Change the Weather History Date:

Thursday, April 17, 2014

  Actual Average Record
Temperature  
Mean Temperature 78 °F 76 °F  
Max Temperature 82 °F 83 °F 94 °F (1965)
Min Temperature 73 °F 70 °F 47 °F (1952)
Degree Days  
Heating Degree Days 0 0  
Month to date heating degree days 0 0  
Since 1 July heating degree days 81 111  
Cooling Degree Days 13 11  
Month to date cooling degree days 211 178  
Year to date cooling degree days 871 788  
Growing Degree Days 28 (Base 50)    
Moisture  
Dew Point 73 °F    
Average Humidity 87    
Maximum Humidity 94    
Minimum Humidity 79    
Precipitation  
Precipitation 0.72 in 0.09 in 4.19 in (1934)
Month to date precipitation 3.96 1.77  
Year to date precipitation 12.13 11.72  
Snow  
Snow 0.00 in - - ()
Month to date snowfall 0.0  
Since 1 July snowfall 0.0  
Snow Depth 0.00 in    
Sea Level Pressure  
Sea Level Pressure 30.09 in    
Wind  
Wind Speed 12 mph (ENE)    
Max Wind Speed 25 mph    
Max Gust Speed 30 mph    
Visibility 9 miles    
Events Rain , Thunderstorm    
T = Trace of Precipitation, MM = Missing Value Source: NWS Daily Summary

Daily Weather History Graph

Daily Weather History Graph

Search for Another Location

Airport or City:

Trip Planner

Search our weather history database for the weather conditions in past years. The results will help you decide how hot, cold, wet, or windy it might be!

Date:

Astronomy

Apr. 17, 2014 Rise Set
Actual Time 6:55 AM EDT 7:45 PM EDT
Civil Twilight 6:31 AM EDT 8:08 PM EDT
Nautical Twilight 6:04 AM EDT 8:36 PM EDT
Astronomical Twilight 5:35 AM EDT 9:05 PM EDT
Moon 10:17 PM EDT (4/17) 8:36 AM EDT (4/17)
Length of Visible Light 13h 36m
Length of Day
12h 49m
Waning Gibbous, 94% of the Moon is Illuminated
Apr 17
Waning Gibbous
Apr 22
Last Quarter
Apr 29
New
May 6
First Quarter
May 14
Full

Hourly Weather History & Observations

Time (EDT) Temp. Heat Index Dew Point Humidity Pressure Visibility Wind Dir Wind Speed Gust Speed Precip Events Conditions
12:00 AM 73.9 °F - 73.9 °F 100% 30.07 in 3.0 mi ENE 13.8 mph - 0.01 in Rain Rain
12:12 AM 73.9 °F - 73.9 °F 100% 30.07 in 1.5 mi ENE 13.8 mph - 0.23 in Rain , Thunderstorm Heavy Thunderstorms and Rain
12:37 AM 73.9 °F - 73.9 °F 100% 30.07 in 6.0 mi ENE 8.1 mph - 0.51 in Rain Rain
12:53 AM 75.0 °F - 73.9 °F 96% 30.06 in 8.0 mi ENE 10.4 mph - 0.52 in Rain Light Rain
1:53 AM 75.9 °F - 73.9 °F 94% 30.05 in 10.0 mi East 13.8 mph - 0.00 in   Mostly Cloudy
2:53 AM 77.0 °F - 72.0 °F 84% 30.04 in 10.0 mi East 10.4 mph - N/A   Mostly Cloudy
3:53 AM 77.0 °F - 72.0 °F 84% 30.04 in 10.0 mi East 12.7 mph - N/A   Scattered Clouds
4:53 AM 77.0 °F - 72.0 °F 84% 30.04 in 10.0 mi East 12.7 mph - N/A   Scattered Clouds
5:53 AM 77.0 °F - 72.0 °F 84% 30.05 in 10.0 mi East 12.7 mph - N/A   Scattered Clouds
6:53 AM 77.0 °F - 71.6 °F 83% 30.06 in 10.0 mi East 9.2 mph - N/A   Scattered Clouds
7:53 AM 78.1 °F - 72.0 °F 81% 30.09 in 10.0 mi East 10.4 mph - N/A   Scattered Clouds
8:20 AM 79.0 °F - 73.0 °F 82% 30.09 in 10.0 mi ENE 8.1 mph - N/A   Mostly Cloudy
8:33 AM 79.0 °F - 73.0 °F 82% 30.09 in 10.0 mi NE 11.5 mph - N/A   Mostly Cloudy
8:53 AM 79.0 °F - 73.0 °F 82% 30.10 in 10.0 mi ENE 12.7 mph - N/A   Mostly Cloudy
9:10 AM 80.1 °F 84.2 °F 73.0 °F 79% 30.10 in 10.0 mi ENE 11.5 mph - N/A   Mostly Cloudy
9:53 AM 80.1 °F 84.2 °F 73.0 °F 79% 30.11 in 10.0 mi ENE 13.8 mph - N/A   Mostly Cloudy
10:48 AM 82.4 °F 88.2 °F 73.4 °F 74% 30.13 in 10.0 mi ENE 13.8 mph - N/A   Mostly Cloudy
10:53 AM 81.0 °F 85.8 °F 73.0 °F 77% 30.13 in 10.0 mi ENE 17.3 mph - N/A   Mostly Cloudy
11:25 AM 79.0 °F - 73.0 °F 82% 30.14 in 10.0 mi ENE 13.8 mph - N/A Thunderstorm Thunderstorm
11:53 AM 75.9 °F - 73.0 °F 91% 30.14 in 1.2 mi ESE 18.4 mph 23.0 mph 0.05 in Rain , Thunderstorm Light Thunderstorms and Rain
12:04 PM 73.9 °F - 73.0 °F 97% 30.14 in 3.0 mi ESE 13.8 mph - 0.31 in Rain , Thunderstorm Heavy Thunderstorms and Rain
12:32 PM 75.0 °F - 75.0 °F 100% 30.13 in 10.0 mi NNE 4.6 mph - 0.39 in Rain Light Rain
12:53 PM 75.0 °F - 75.0 °F 100% 30.13 in 9.0 mi ENE 9.2 mph - 0.39 in   Mostly Cloudy
1:53 PM 77.0 °F - 73.0 °F 88% 30.12 in 10.0 mi ENE 5.8 mph - N/A   Mostly Cloudy
2:50 PM 78.8 °F - 73.4 °F 83% 30.10 in 10.0 mi ENE 9.2 mph - N/A   Mostly Cloudy
2:53 PM 78.1 °F - 73.9 °F 87% 30.10 in 10.0 mi ENE 10.4 mph - N/A   Mostly Cloudy
3:53 PM 78.1 °F - 73.9 °F 87% 30.07 in 10.0 mi NE 9.2 mph - N/A   Overcast
4:53 PM 78.1 °F - 73.9 °F 87% 30.07 in 10.0 mi East 10.4 mph - N/A   Mostly Cloudy
5:53 PM 75.9 °F - 75.0 °F 97% 30.06 in 9.0 mi ENE 13.8 mph 24.2 mph 0.07 in Rain Light Rain
6:53 PM 75.9 °F - 75.9 °F 100% 30.07 in 10.0 mi ENE 10.4 mph - 0.01 in   Mostly Cloudy
7:13 PM 77.0 °F - 75.9 °F 96% 30.07 in 10.0 mi ENE 12.7 mph - N/A   Mostly Cloudy
7:53 PM 77.0 °F - 75.0 °F 94% 30.06 in 10.0 mi East 13.8 mph - N/A   Mostly Cloudy
8:53 PM 78.1 °F - 73.0 °F 84% 30.07 in 10.0 mi East 15.0 mph - N/A   Mostly Cloudy
9:53 PM 78.1 °F - 72.0 °F 81% 30.09 in 10.0 mi East 13.8 mph - N/A   Scattered Clouds
10:53 PM 77.0 °F - 73.0 °F 88% 30.09 in 10.0 mi East 10.4 mph - N/A   Partly Cloudy
11:10 PM 78.1 °F - 73.0 °F 84% 30.09 in 10.0 mi East 12.7 mph - N/A   Mostly Cloudy
11:34 PM 77.0 °F - 73.0 °F 88% 30.09 in 10.0 mi East 11.5 mph - N/A   Scattered Clouds
11:45 PM 77.0 °F - 73.0 °F 88% 30.09 in 10.0 mi East 12.7 mph - N/A   Mostly Cloudy
11:53 PM 78.1 °F - 73.0 °F 84% 30.09 in 10.0 mi ENE 10.4 mph - N/A   Mostly Cloudy